User: anonymous   Login
Location: Smithers
(54.7670°N, 127.1670°W)
Time: 01:04:02
(UTC-08:00)
Language:

ERBS - Orbit

View from above orbital plane
View from above orbital plane
View from above satellite
View from above satellite

Ground track
Ground track

The orbit data is extracted from the following two-line orbital elements,

1 15354U 84108B   17055.87903716  .00004814  00000-0  11712-3 0  9990
2 15354  57.0072 261.6518 0006267 234.6180 125.4290 15.42849062780868
Epoch (UTC): 24 February 2017 21:05:48
Eccentricity: 0.0006267
inclination: 57.0072°
perigee height: 433 km
apogee height: 442 km
right ascension of ascending node: 261.6518°
argument of perigee: 234.6180°
revolutions per day: 15.42849062
mean anomaly at epoch: 125.4290°
orbit number at epoch: 78086

The dashed part of the orbit path shows where the satellite is in the earth's shadow,  

DLR